Home   Weather   43°42'N, 85°29'W   Past weeks
Flag for USA

Past Weather in 43°42'N, 85°29'W, USA — Yesterday and Last 2 Weeks

Now
42 °F

Sunny.


Feels Like: 38 °F
Forecast: 42 / 28 °F
Wind: 6 mph from Southwest

Location: Roben-Hood Airport

Current Time: Mar 20, 2019 at 11:57:52 am

Latest Report: Mar 20, 2019 at 11:35 am


Visibility: 10 mi

Pressure: 30.02 "Hg

Humidity: 68%

Dew Point: 32 °F

Location of 43°42'N, 85°29'WLocation

Past Weather in 43°42'N, 85°29'W — Graph

°F

43°42'N, 85°29'W Temperature Yesterday

Maximum temperature yesterday: 44 °F (at 3:56 pm)
Minimum temperature yesterday: 23 °F (at 7:16 am)
Average temperature yesterday: 33 °F

High & Low Weather Summary for the Past Weeks

 TemperatureHumidityPressure
High54 °F (Mar 14, 1:35 pm)99% (Mar 13, 7:15 pm)30.35 "Hg (Mar 13, 7:15 pm)
Low-4 °F (Mar 8, 6:16 am)30% (Mar 18, 3:15 pm)29.30 "Hg (Mar 10, 3:35 am)
Average27 °F77%30.06 "Hg
* Reported Mar 5 9:15 am — Mar 20 10:55 am, 43°42'N, 85°29'W. Weather by CustomWeather, © 2019

Note: Actual official high and low records may vary slightly from our data, if they occured in-between our weather recording intervals... More about our weather records

Advertising

43°42'N, 85°29'W Weather History for the Previous 24 Hours

Scroll right to see more
 ConditionsComfort  
Time TempWeatherWind HumidityBarometerVisibility
10:55 am
Wed, Mar 20
41 °FSunny.8 mph67%30.03 "Hg10 mi
10:35 am41 °FSunny.10 mph66%30.04 "Hg10 mi
10:16 am39 °FSunny.9 mph68%30.04 "Hg10 mi
9:35 am36 °FSunny.7 mph70%30.04 "Hg10 mi
9:15 am36 °FSunny.6 mph71%30.05 "Hg10 mi
8:56 am34 °FSunny.5 mph73%30.05 "Hg10 mi
8:36 am34 °FSunny.5 mph74%30.05 "Hg10 mi
8:15 am32 °FSunny.5 mph78%30.06 "Hg10 mi
7:55 am31 °FSunny.5 mph77%30.06 "Hg10 mi
7:36 am30 °FClear.3 mph77%30.07 "Hg10 mi
7:16 am31 °FClear.No wind75%30.07 "Hg10 mi
7:15 am31 °FClear.No wind75%30.07 "Hg10 mi
6:56 am30 °FClear.No wind76%30.08 "Hg10 mi
6:35 am31 °FClear.No wind75%30.08 "Hg10 mi
6:15 am30 °FClear.No wind75%30.09 "Hg10 mi
5:56 am31 °FClear.3 mph72%30.09 "Hg10 mi
5:35 am32 °FClear.3 mph69%30.10 "Hg10 mi
4:56 am32 °FClear.3 mph70%30.11 "Hg10 mi
4:35 am32 °FClear.3 mph70%30.12 "Hg10 mi
4:15 am31 °FClear.3 mph70%30.12 "Hg10 mi
3:55 am31 °FClear.3 mph72%30.13 "Hg10 mi
3:36 am29 °FClear.3 mph76%30.14 "Hg10 mi
3:15 am29 °FClear.No wind77%30.15 "Hg10 mi
2:55 am29 °FClear.3 mph79%30.16 "Hg10 mi
2:36 am28 °FClear.3 mph80%30.16 "Hg10 mi
1:55 am29 °FClear.No wind76%30.17 "Hg10 mi
1:36 am29 °FClear.No wind76%30.18 "Hg10 mi
1:16 am30 °FClear.5 mph75%30.19 "Hg10 mi
12:55 am29 °FClear.3 mph82%30.19 "Hg10 mi
12:35 am29 °FClear.3 mph79%30.20 "Hg10 mi
12:16 am32 °FClear.No wind63%30.20 "Hg10 mi
11:55 pm
Tue, Mar 19
32 °FClear.No wind63%30.20 "Hg10 mi
11:36 pm32 °FClear.No wind60%30.21 "Hg10 mi
11:16 pm31 °FClear.No wind66%30.21 "Hg10 mi
10:56 pm32 °FClear.No wind62%30.22 "Hg10 mi
10:35 pm34 °FClear.No wind54%30.23 "Hg10 mi
10:15 pm34 °FClear.No wind56%30.23 "Hg10 mi
9:56 pm33 °FClear.No wind60%30.24 "Hg10 mi
9:35 pm34 °FClear.No wind59%30.24 "Hg10 mi
8:56 pm37 °FClear.3 mph50%30.24 "Hg10 mi
8:35 pm37 °FClear.3 mph48%30.24 "Hg10 mi
7:56 pm39 °FClear.3 mph45%30.25 "Hg10 mi
7:36 pm40 °FSunny.9 mph42%30.25 "Hg10 mi
6:56 pm42 °FSunny.10 mph38%30.25 "Hg10 mi
6:15 pm43 °FSunny.10 mph39%30.26 "Hg10 mi
5:55 pm43 °FSunny.12 mph44%30.26 "Hg10 mi
5:35 pm44 °FScattered clouds.6 mph45%30.26 "Hg10 mi
5:16 pm44 °FScattered clouds.9 mph46%30.27 "Hg10 mi
4:56 pm44 °FSunny.10 mph46%30.28 "Hg10 mi
4:35 pm44 °FSunny.8 mph45%30.28 "Hg10 mi
4:16 pm44 °FScattered clouds.8 mph45%30.29 "Hg10 mi
3:56 pm44 °FScattered clouds.10 mph47%30.29 "Hg10 mi
3:35 pm44 °FScattered clouds.10 mph47%30.29 "Hg10 mi
3:15 pm43 °FPartly sunny.14 mph50%30.30 "Hg10 mi
2:56 pm43 °FScattered clouds.5 mph48%30.31 "Hg10 mi
2:36 pm44 °FScattered clouds.9 mph49%30.32 "Hg10 mi
1:55 pm44 °FScattered clouds.9 mph47%30.32 "Hg10 mi
1:36 pm44 °FPartly sunny.9 mph44%30.32 "Hg10 mi
1:15 pm43 °FScattered clouds.8 mph48%30.33 "Hg10 mi
12:55 pm43 °FScattered clouds.9 mph48%30.33 "Hg10 mi
12:36 pm42 °FScattered clouds.12 mph49%30.34 "Hg10 mi
11:55 am41 °FSunny.3 mph53%30.34 "Hg10 mi
11:35 am41 °FSunny.7 mph55%30.34 "Hg10 mi
11:15 am40 °FSunny.6 mph64%30.34 "Hg10 mi
Weather by CustomWeather, © 2019

See weather overview